This is the latest recevied weather packets stored in our database for station/object KC2GYU. If no packets are shown the sender has not sent any weather packets the latest 10 day(s).
| Time | Temp. | Humidity | Pressure | Rain* | Wind** | Luminosity | Snow |
|---|---|---|---|---|---|---|---|
| 1777495907 | 13.33° C | 84% | 1011.9 hPa | 0 mm | - | 167 W/m² | - |
| 1777495603 | 13.33° C | 85% | 1012 hPa | 0 mm | - | 452 W/m² | - |
| 1777495299 | 12.78° C | 87% | 1012.3 hPa | 0 mm | - | 377 W/m² | - |
| 1777494997 | 12.22° C | 87% | 1012.2 hPa | 0 mm | - | 290 W/m² | - |
| 1777494694 | 12.22° C | 87% | 1012.1 hPa | 0 mm | - | 250 W/m² | - |
| 1777494391 | 12.22° C | 88% | 1012.2 hPa | 0 mm | - | 207 W/m² | - |
| 1777494087 | 11.67° C | 87% | 1012.4 hPa | 0 mm | - | 215 W/m² | - |
| 1777493785 | 11.67° C | 87% | 1012.4 hPa | 0 mm | - | 174 W/m² | - |
| 1777493483 | 11.67° C | 87% | 1012.6 hPa | 0 mm | - | 136 W/m² | - |
| 1777493180 | 11.67° C | 86% | 1012.9 hPa | 0 mm | - | 140 W/m² | - |
| 1777492882 | 12.22° C | 87% | 1013.2 hPa | 0 mm | - | 157 W/m² | - |
| 1777492573 | 11.67° C | 87% | 1013.1 hPa | 0 mm | - | 153 W/m² | - |
| 1777492268 | 12.22° C | 86% | 1013.2 hPa | 0 mm | - | 169 W/m² | - |
| 1777491966 | 12.22° C | 86% | 1013.5 hPa | 0 mm | - | 190 W/m² | - |
| 1777491661 | 12.22° C | 85% | 1013.6 hPa | 0 mm | - | 193 W/m² | - |
| 1777491360 | 12.22° C | 85% | 1013.6 hPa | 0 mm | - | 187 W/m² | - |
| 1777491056 | 12.78° C | 85% | 1013.8 hPa | 0 mm | - | 190 W/m² | - |
| 1777490751 | 12.78° C | 85% | 1013.6 hPa | 0 mm | - | 237 W/m² | - |
| 1777490449 | 12.78° C | 84% | 1013.5 hPa | 0 mm | - | 265 W/m² | - |
| 1777490145 | 12.78° C | 83% | 1013.8 hPa | 0 mm | - | 419 W/m² | - |
| 1777489843 | 12.78° C | 83% | 1013.9 hPa | 0 mm | - | 411 W/m² | - |
| 1777489539 | 12.22° C | 85% | 1014.1 hPa | 0 mm | - | 369 W/m² | - |
| 1777489237 | 12.78° C | 84% | 1014.3 hPa | 0 mm | - | 255 W/m² | - |
| 1777488933 | 12.78° C | 85% | 1014.3 hPa | 0 mm | - | 248 W/m² | - |
| 1777488630 | 12.22° C | 85% | 1014.2 hPa | 0 mm | - | 248 W/m² | - |
* Rain latest hour (hover to see other rain measurements)
** Current wind speed in m/s (hover to see current wind gust speed)